When you browse on this site, cookies collect data to enhance your experience and personalize the content and advertising you see.
Visit our Privacy Policy to learn more. By continuing to use the site, you agree to this use of cookies and data.
  • In Schweiz
  • Länderverzeichnis
  • Für 7 Tage
  • Wassertemperatur
  • Wetterkarte
  • Widgets
  • user-avatar
    Anmelden

    Stündliche Wetter Tampere

    Heute, 12 November, Dienstag

    Zeit Temperatur Niederschläge Wind Luftdruck Luftfeuchtigkeit
    00:00 -2°C° 0 mm 1 m/S 750 mmHg 94%
    01:00 -2°C° 0 mm 1 m/S 750 mmHg 94%
    02:00 -1°C° 0 mm 1 m/S 751 mmHg 94%
    03:00 -1°C° 0 mm 1 m/S 751 mmHg 93%
    04:00 -1°C° 0 mm 1 m/S 751 mmHg 92%
    05:00 -1°C° 0 mm 1 m/S 751 mmHg 92%
    06:00 -2°C° 0 mm 2 m/S 752 mmHg 92%
    07:00 -2°C° 0 mm 2 m/S 752 mmHg 92%
    08:00 -1°C° 0 mm 2 m/S 752 mmHg 91%
    09:00 -1°C° 0 mm 2 m/S 752 mmHg 90%
    10:00 0°C° 0 mm 3 m/S 752 mmHg 90%
    11:00 +1°C° 0 mm 3 m/S 753 mmHg 90%
    12:00 +1°C° 0 mm 3 m/S 753 mmHg 90%
    13:00 +2°C° 0 mm 3 m/S 753 mmHg 89%
    14:00 +1°C° 0 mm 4 m/S 753 mmHg 88%
    15:00 +1°C° 0 mm 4 m/S 752 mmHg 89%
    16:00 0°C° 0 mm 4 m/S 752 mmHg 91%
    17:00 0°C° 0 mm 4 m/S 751 mmHg 92%
    18:00 0°C° 0 mm 5 m/S 751 mmHg 90%
    19:00 +1°C° 0 mm 5 m/S 750 mmHg 89%
    20:00 +1°C° 0 mm 5 m/S 750 mmHg 88%
    21:00 +1°C° 0.7 mm 5 m/S 749 mmHg 90%
    22:00 +1°C° 0.7 mm 5 m/S 749 mmHg 92%
    23:00 +1°C° 0.7 mm 5 m/S 748 mmHg 95%

    Morgen, 13 November, Mittwoch

    Zeit Temperatur Niederschläge Wind Luftdruck Luftfeuchtigkeit
    00:00 +2°C° 0.7 mm 5 m/S 748 mmHg 94%
    01:00 +2°C° 0.7 mm 5 m/S 748 mmHg 94%
    02:00 +3°C° 0.7 mm 4 m/S 748 mmHg 94%
    03:00 +3°C° 0.5 mm 4 m/S 748 mmHg 95%
    04:00 +3°C° 0.5 mm 3 m/S 748 mmHg 96%
    05:00 +3°C° 0.5 mm 3 m/S 748 mmHg 97%
    06:00 +3°C° 0.7 mm 3 m/S 748 mmHg 97%
    07:00 +3°C° 0.7 mm 3 m/S 747 mmHg 97%
    08:00 +4°C° 0.7 mm 2 m/S 747 mmHg 97%
    09:00 +3°C° 0.3 mm 3 m/S 747 mmHg 97%
    10:00 +3°C° 0.3 mm 3 m/S 747 mmHg 96%
    11:00 +3°C° 0.3 mm 3 m/S 747 mmHg 96%
    12:00 +4°C° 0.2 mm 3 m/S 747 mmHg 96%
    13:00 +4°C° 0.2 mm 3 m/S 747 mmHg 96%
    14:00 +4°C° 0.2 mm 3 m/S 746 mmHg 96%
    15:00 +4°C° 0.3 mm 3 m/S 746 mmHg 96%
    16:00 +4°C° 0.3 mm 3 m/S 746 mmHg 97%
    17:00 +4°C° 0.3 mm 3 m/S 745 mmHg 97%
    18:00 +4°C° 1 mm 3 m/S 745 mmHg 97%
    19:00 +5°C° 1 mm 2 m/S 744 mmHg 98%
    20:00 +5°C° 1 mm 2 m/S 744 mmHg 98%
    21:00 +5°C° 2 mm 2 m/S 743 mmHg 98%
    22:00 +5°C° 2 mm 2 m/S 743 mmHg 98%
    23:00 +5°C° 2 mm 2 m/S 743 mmHg 98%

    übermorgen, 14 November, Donnerstag

    Zeit Temperatur Niederschläge Wind Luftdruck Luftfeuchtigkeit
    00:00 +5°C° 0.8 mm 2 m/S 742 mmHg 98%
    01:00 +6°C° 0.8 mm 1 m/S 742 mmHg 98%
    02:00 +6°C° 0.8 mm 1 m/S 742 mmHg 98%
    03:00 +6°C° 0 mm 1 m/S 742 mmHg 98%
    04:00 +6°C° 0 mm 1 m/S 743 mmHg 98%
    05:00 +6°C° 0 mm 1 m/S 743 mmHg 98%
    06:00 +7°C° 0 mm 1 m/S 743 mmHg 98%
    07:00 +7°C° 0 mm 1 m/S 743 mmHg 98%
    08:00 +7°C° 0 mm 1 m/S 744 mmHg 98%
    09:00 +7°C° 0.2 mm 1 m/S 744 mmHg 98%
    10:00 +6°C° 0.2 mm 2 m/S 744 mmHg 98%
    11:00 +6°C° 0.2 mm 2 m/S 745 mmHg 98%
    12:00 +7°C° 0.8 mm 2 m/S 745 mmHg 98%
    13:00 +7°C° 0.8 mm 2 m/S 745 mmHg 98%
    14:00 +7°C° 0.8 mm 2 m/S 744 mmHg 98%
    15:00 +7°C° 0.6 mm 3 m/S 744 mmHg 97%
    16:00 +8°C° 0.6 mm 3 m/S 744 mmHg 96%
    17:00 +8°C° 0.6 mm 3 m/S 744 mmHg 95%
    18:00 +8°C° 0.8 mm 3 m/S 744 mmHg 95%
    19:00 +8°C° 0.8 mm 3 m/S 745 mmHg 95%
    20:00 +7°C° 0.8 mm 4 m/S 745 mmHg 96%
    21:00 +6°C° 0.1 mm 4 m/S 746 mmHg 95%
    22:00 +5°C° 0.1 mm 4 m/S 747 mmHg 94%
    23:00 +4°C° 0.1 mm 4 m/S 748 mmHg 93%

    15 November, Freitag

    Zeit Temperatur Niederschläge Wind Luftdruck Luftfeuchtigkeit
    00:00 +4°C° 0 mm 4 m/S 749 mmHg 92%
    01:00 +4°C° 0 mm 4 m/S 751 mmHg 92%
    02:00 +4°C° 0 mm 4 m/S 752 mmHg 91%
    03:00 +3°C° 0 mm 3 m/S 753 mmHg 91%
    04:00 +3°C° 0 mm 3 m/S 753 mmHg 90%
    05:00 +3°C° 0 mm 3 m/S 754 mmHg 89%
    06:00 +3°C° 0 mm 2 m/S 755 mmHg 91%
    07:00 +2°C° 0 mm 2 m/S 755 mmHg 93%
    08:00 +1°C° 0 mm 2 m/S 756 mmHg 95%
    09:00 +4°C° 0 mm 1 m/S 756 mmHg 93%
    10:00 +4°C° 0 mm 1 m/S 757 mmHg 92%
    11:00 +3°C° 0 mm 0 m/S 757 mmHg 91%
    12:00 +3°C° 0 mm 0 m/S 758 mmHg 90%
    13:00 +3°C° 0 mm 0 m/S 758 mmHg 89%
    14:00 +3°C° 0 mm 0 m/S 759 mmHg 89%
    15:00 +3°C° 0 mm 1 m/S 759 mmHg 90%
    16:00 +3°C° 0 mm 1 m/S 759 mmHg 91%
    17:00 +2°C° 0 mm 1 m/S 759 mmHg 92%
    18:00 +2°C° 0 mm 1 m/S 759 mmHg 92%
    19:00 +2°C° 0 mm 1 m/S 759 mmHg 93%
    20:00 +1°C° 0 mm 1 m/S 759 mmHg 93%
    21:00 +1°C° 0 mm 2 m/S 760 mmHg 93%
    22:00 +1°C° 0 mm 2 m/S 760 mmHg 93%
    23:00 +1°C° 0 mm 2 m/S 760 mmHg 92%

    16 November, Samstag

    Zeit Temperatur Niederschläge Wind Luftdruck Luftfeuchtigkeit
    00:00 +1°C° 0 mm 2 m/S 760 mmHg 92%
    01:00 +2°C° 0 mm 2 m/S 759 mmHg 91%
    02:00 +2°C° 0 mm 2 m/S 759 mmHg 91%
    03:00 +2°C° 0 mm 2 m/S 759 mmHg 91%
    04:00 +2°C° 0 mm 2 m/S 759 mmHg 91%
    05:00 +3°C° 0 mm 2 m/S 758 mmHg 92%
    06:00 +2°C° 0 mm 3 m/S 758 mmHg 92%
    07:00 +2°C° 0 mm 3 m/S 758 mmHg 93%
    08:00 +2°C° 0 mm 3 m/S 758 mmHg 94%
    09:00 +2°C° 0 mm 3 m/S 757 mmHg 94%
    10:00 +3°C° 0 mm 3 m/S 757 mmHg 94%
    11:00 +3°C° 0 mm 4 m/S 757 mmHg 95%
    12:00 +3°C° 0 mm 4 m/S 757 mmHg 95%
    13:00 +4°C° 0 mm 4 m/S 756 mmHg 94%
    14:00 +4°C° 0 mm 4 m/S 756 mmHg 94%
    15:00 +4°C° 0 mm 4 m/S 755 mmHg 93%
    16:00 +4°C° 0 mm 4 m/S 755 mmHg 93%
    17:00 +3°C° 0 mm 4 m/S 755 mmHg 92%
    18:00 +3°C° 0 mm 4 m/S 755 mmHg 91%
    19:00 +3°C° 0 mm 4 m/S 755 mmHg 91%
    20:00 +3°C° 0 mm 4 m/S 755 mmHg 91%
    21:00 +3°C° 0 mm 4 m/S 755 mmHg 92%
    22:00 +3°C° 0 mm 4 m/S 754 mmHg 92%
    23:00 +3°C° 0 mm 4 m/S 754 mmHg 93%

    17 November, Sonntag

    Zeit Temperatur Niederschläge Wind Luftdruck Luftfeuchtigkeit
    00:00 +3°C° 0 mm 4 m/S 754 mmHg 93%
    01:00 +3°C° 0 mm 4 m/S 754 mmHg 93%
    02:00 +3°C° 0 mm 4 m/S 754 mmHg 94%
    03:00 +4°C° 0 mm 4 m/S 754 mmHg 94%
    04:00 +4°C° 0 mm 4 m/S 754 mmHg 94%
    05:00 +5°C° 0 mm 4 m/S 754 mmHg 94%
    06:00 +5°C° 0 mm 4 m/S 755 mmHg 94%
    07:00 +5°C° 0 mm 3 m/S 755 mmHg 94%
    08:00 +4°C° 0 mm 3 m/S 756 mmHg 94%
    09:00 +4°C° 0 mm 3 m/S 756 mmHg 94%
    10:00 +4°C° 0 mm 3 m/S 757 mmHg 93%
    11:00 +4°C° 0 mm 3 m/S 757 mmHg 93%
    12:00 +4°C° 0 mm 3 m/S 757 mmHg 93%
    13:00 +4°C° 0 mm 3 m/S 758 mmHg 92%
    14:00 +5°C° 0 mm 2 m/S 758 mmHg 92%
    15:00 +5°C° 0 mm 2 m/S 758 mmHg 93%
    16:00 +4°C° 0 mm 2 m/S 758 mmHg 94%
    17:00 +3°C° 0 mm 2 m/S 758 mmHg 95%
    18:00 +3°C° 0 mm 2 m/S 758 mmHg 94%
    19:00 +3°C° 0 mm 2 m/S 758 mmHg 94%
    20:00 +4°C° 0 mm 1 m/S 758 mmHg 94%
    21:00 +4°C° 0 mm 1 m/S 758 mmHg 94%
    22:00 +4°C° 0 mm 1 m/S 758 mmHg 94%
    23:00 +5°C° 0 mm 1 m/S 758 mmHg 94%
    Mehr zeigen